QPF
0.00 0.00 0.00 0.00 0.00 0.00 0.00 0.00 0.00 0.00 0.00 0.00 0.00 0.00 0.00 0.00 0.00 0.00 0.00 0.01 0.02 0.02 0.02 0.03 0.02 0.02 0.03 0.03 0.03 0.04 0.04 0.04 0.03 0.01 0.01 0.04 0.11 0.17 0.17 0.10 0.05 0.04 0.03
0.00 0.00 0.00 0.00 0.00 0.00 0.00 0.00 0.00 0.00 0.00 0.00 0.00 0.00 0.00 0.00 0.00 0.00 0.00 0.01 0.02 0.03 0.03 0.04 0.03 0.04 0.04 0.04 0.05 0.05 0.05 0.05 0.05 0.02 0.01 0.03 0.08 0.15 0.22 0.19 0.10 0.05 0.03
0.00 0.00 0.00 0.00 0.00 0.00 0.00 0.00 0.00 0.00 0.00 0.00 0.00 0.00 0.01 0.02 0.03 0.03 0.02 0.02 0.05 0.06 0.06 0.05 0.05 0.07 0.08 0.07 0.09 0.09 0.07 0.08 0.08 0.06 0.02 0.03 0.05 0.09 0.18 0.25 0.17 0.08 0.04
0.00 0.00 0.00 0.00 0.00 0.00 0.00 0.00 0.00 0.00 0.00 0.00 0.00 0.00 0.02 0.06 0.10 0.12 0.11 0.10 0.11 0.08 0.05 0.03 0.06 0.13 0.12 0.11 0.12 0.10 0.09 0.08 0.08 0.07 0.04 0.02 0.03 0.06 0.11 0.20 0.22 0.13 0.06
0.00 0.00 0.00 0.00 0.00 0.00 0.00 0.00 0.00 0.00 0.00 0.00 0.00 0.00 0.02 0.10 0.27 0.41 0.33 0.19 0.10 0.04 0.01 0.01 0.05 0.10 0.09 0.12 0.14 0.10 0.09 0.08 0.08 0.07 0.05 0.04 0.03 0.05 0.08 0.12 0.18 0.16 0.09
0.00 0.00 0.00 0.00 0.00 0.00 0.00 0.00 0.00 0.00 0.00 0.00 0.00 0.00 0.01 0.10 0.36 0.47 0.25 0.10 0.04 0.02 0.01 0.01 0.03 0.07 0.05 0.06 0.10 0.11 0.10 0.10 0.09 0.07 0.07 0.07 0.06 0.06 0.06 0.07 0.10 0.14 0.11
0.00 0.00 0.00 0.00 0.00 0.00 0.00 0.00 0.00 0.00 0.00 0.00 0.00 0.00 0.00 0.06 0.29 0.28 0.10 0.04 0.03 0.01 0.01 0.02 0.03 0.07 0.05 0.02 0.05 0.06 0.06 0.07 0.08 0.08 0.08 0.08 0.08 0.07 0.05 0.04 0.05 0.08 0.08
0.00 0.00 0.00 0.00 0.00 0.00 0.00 0.00 0.00 0.00 0.00 0.00 0.00 0.00 0.00 0.04 0.22 0.16 0.03 0.02 0.01 0.00 0.01 0.01 0.02 0.04 0.05 0.01 0.02 0.04 0.05 0.07 0.10 0.10 0.09 0.08 0.05 0.04 0.03 0.02 0.02 0.03 0.04
0.00 0.00 0.00 0.00 0.00 0.00 0.00 0.00 0.00 0.00 0.00 0.00 0.00 0.00 0.00 0.01 0.12 0.12 0.01 0.01 0.00 0.00 0.00 0.00 0.01 0.01 0.03 0.01 0.00 0.02 0.02 0.04 0.06 0.08 0.07 0.06 0.04 0.03 0.02 0.01 0.02 0.03 0.04
0.00 0.00 0.00 0.00 0.00 0.00 0.00 0.00 0.00 0.00 0.00 0.00 0.00 0.00 0.00 0.00 0.04 0.08 0.03 0.00 0.00 0.00 0.00 0.00 0.01 0.02 0.02 0.01 0.00 0.01 0.02 0.02 0.04 0.04 0.04 0.04 0.03 0.03 0.03 0.03 0.03 0.05 0.05
0.00 0.00 0.00 0.00 0.00 0.00 0.00 0.00 0.00 0.00 0.00 0.00 0.00 0.00 0.00 0.00 0.01 0.03 0.04 0.02 0.00 0.00 0.00 0.00 0.00 0.01 0.01 0.01 0.00 0.00 0.01 0.01 0.02 0.03 0.03 0.04 0.03 0.03 0.04 0.05 0.06 0.09 0.10
0.00 0.00 0.00 0.00 0.00 0.00 0.00 0.00 0.00 0.00 0.01 0.00 0.00 0.00 0.00 0.00 0.01 0.01 0.02 0.02 0.01 0.00 0.00 0.00 0.00 0.00 0.00 0.00 0.00 0.00 0.00 0.00 0.00 0.01 0.02 0.03 0.05 0.07 0.09 0.10 0.13 0.16 0.18
0.00 0.00 0.00 0.00 0.00 0.00 0.00 0.00 0.00 0.01 0.02 0.00 0.00 0.00 0.00 0.00 0.00 0.01 0.01 0.01 0.01 0.00 0.00 0.00 0.00 0.00 0.00 0.00 0.00 0.00 0.00 0.00 0.00 0.00 0.02 0.04 0.07 0.12 0.12 0.12 0.16 0.24 0.28
0.00 0.00 0.00 0.00 0.00 0.00 0.00 0.00 0.00 0.02 0.05 0.01 0.00 0.00 0.00 0.01 0.02 0.01 0.00 0.00 0.00 0.00 0.00 0.00 0.00 0.00 0.00 0.00 0.00 0.00 0.00 0.00 0.00 0.00 0.01 0.02 0.04 0.06 0.11 0.15 0.18 0.27 0.34
0.00 0.00 0.00 0.00 0.00 0.00 0.00 0.00 0.00 0.01 0.03 0.03 0.02 0.01 0.01 0.03 0.03 0.02 0.01 0.01 0.00 0.00 0.00 0.00 0.00 0.00 0.00 0.00 0.00 0.00 0.00 0.00 0.00 0.00 0.00 0.01 0.02 0.04 0.08 0.14 0.21 0.28 0.34
0.00 0.00 0.00 0.00 0.00 0.00 0.00 0.00 0.00 0.00 0.01 0.01 0.02 0.03 0.01 0.02 0.02 0.01 0.01 0.01 0.01 0.00 0.00 0.00 0.00 0.00 0.00 0.00 0.00 0.00 0.00 0.00 0.00 0.00 0.00 0.00 0.01 0.03 0.06 0.10 0.17 0.26 0.34
0.00 0.00 0.00 0.00 0.00 0.00 0.00 0.00 0.00 0.00 0.00 0.00 0.00 0.01 0.02 0.01 0.01 0.01 0.01 0.00 0.00 0.00 0.00 0.00 0.00 0.00 0.00 0.00 0.00 0.00 0.00 0.00 0.00 0.00 0.00 0.00 0.00 0.01 0.03 0.06 0.11 0.18 0.28
0.00 0.00 0.00 0.00 0.00 0.00 0.00 0.00 0.00 0.00 0.00 0.00 0.00 0.00 0.01 0.01 0.00 0.00 0.00 0.00 0.00 0.00 0.00 0.00 0.00 0.00 0.00 0.00 0.00 0.00 0.00 0.00 0.00 0.00 0.00 0.00 0.00 0.00 0.01 0.02 0.05 0.10 0.17
0.00 0.00 0.00 0.00 0.00 0.00 0.00 0.00 0.00 0.00 0.00 0.00 0.00 0.00 0.00 0.00 0.00 0.00 0.00 0.00 0.00 0.00 0.00 0.00 0.00 0.00 0.00 0.00 0.00 0.00 0.00 0.00 0.00 0.00 0.00 0.00 0.00 0.00 0.00 0.00 0.02 0.04 0.08
0.00 0.00 0.00 0.00 0.00 0.00 0.00 0.00 0.00 0.00 0.00 0.00 0.00 0.00 0.01 0.01 0.00 0.00 0.00 0.00 0.00 0.00 0.00 0.00 0.00 0.00 0.00 0.00 0.00 0.00 0.00 0.00 0.00 0.00 0.00 0.00 0.00 0.00 0.00 0.00 0.00 0.01 0.02
0.00 0.00 0.00 0.00 0.00 0.00 0.00 0.00 0.00 0.00 0.00 0.00 0.01 0.01 0.03 0.03 0.01 0.01 0.00 0.00 0.00 0.00 0.00 0.00 0.00 0.00 0.00 0.00 0.00 0.00 0.00 0.00 0.00 0.00 0.00 0.00 0.00 0.00 0.00 0.00 0.00 0.00 0.00
0.00 0.00 0.00 0.00 0.00 0.00 0.00 0.00 0.00 0.00 0.00 0.01 0.01 0.00 0.01 0.01 0.02 0.02 0.02 0.01 0.01 0.01 0.00 0.00 0.00 0.00 0.00 0.00 0.00 0.00 0.00 0.00 0.00 0.00 0.00 0.00 0.00 0.00 0.00 0.00 0.00 0.00 0.00
0.00 0.00 0.00 0.00 0.00 0.00 0.00 0.00 0.00 0.00 0.00 0.01 0.01 0.01 0.01 0.02 0.03 0.04 0.04 0.03 0.03 0.02 0.01 0.01 0.00 0.00 0.00 0.00 0.00 0.00 0.00 0.00 0.00 0.00 0.00 0.00 0.00 0.00 0.00 0.00 0.00 0.00 0.00
0.00 0.00 0.00 0.00 0.00 0.00 0.00 0.00 0.00 0.00 0.00 0.01 0.01 0.01 0.01 0.02 0.02 0.03 0.04 0.04 0.05 0.04 0.04 0.03 0.02 0.01 0.00 0.00 0.00 0.00 0.00 0.00 0.00 0.00 0.00 0.00 0.00 0.00 0.00 0.00 0.00 0.00 0.00
0.00 0.00 0.00 0.00 0.00 0.00 0.00 0.00 0.00 0.00 0.01 0.01 0.01 0.01 0.01 0.01 0.01 0.01 0.02 0.03 0.04 0.05 0.06 0.06 0.05 0.04 0.02 0.01 0.00 0.00 0.00 0.00 0.00 0.00 0.00 0.00 0.00 0.00 0.00 0.00 0.00 0.00 0.00
0.00 0.00 0.00 0.00 0.00 0.00 0.00 0.00 0.00 0.00 0.01 0.01 0.01 0.01 0.01 0.01 0.01 0.01 0.02 0.03 0.05 0.05 0.06 0.07 0.08 0.08 0.07 0.04 0.02 0.01 0.00 0.00 0.00 0.00 0.00 0.00 0.00 0.00 0.00 0.00 0.00 0.00 0.00
MSLP
1034.82 1034.31 1033.77 1033.21 1032.60 1031.93 1031.21 1030.44 1029.61 1028.74 1027.84 1026.90 1025.95 1024.99 1024.04 1023.10 1022.21 1021.37 1020.62 1019.94 1019.34 1018.79 1018.27 1017.74 1017.16 1016.51 1015.77 1014.95 1014.06 1013.14 1012.22 1011.36 1010.57 1009.87 1009.27 1008.75 1008.28 1007.84 1007.42 1007.01 1006.62 1006.26 1005.97
1034.77 1034.20 1033.62 1033.01 1032.38 1031.71 1030.99 1030.21 1029.37 1028.48 1027.54 1026.54 1025.50 1024.45 1023.40 1022.37 1021.42 1020.55 1019.79 1019.13 1018.58 1018.09 1017.64 1017.17 1016.64 1016.03 1015.31 1014.49 1013.60 1012.68 1011.78 1010.92 1010.16 1009.49 1008.93 1008.44 1008.02 1007.62 1007.23 1006.84 1006.46 1006.11 1005.81
1034.72 1034.11 1033.48 1032.84 1032.19 1031.50 1030.76 1029.98 1029.13 1028.22 1027.24 1026.19 1025.10 1023.97 1022.86 1021.79 1020.80 1019.91 1019.16 1018.55 1018.05 1017.63 1017.23 1016.82 1016.34 1015.76 1015.06 1014.26 1013.37 1012.46 1011.55 1010.71 1009.96 1009.30 1008.75 1008.28 1007.87 1007.47 1007.08 1006.69 1006.30 1005.94 1005.63
1034.69 1034.05 1033.40 1032.73 1032.04 1031.33 1030.59 1029.80 1028.94 1028.02 1027.02 1025.95 1024.83 1023.68 1022.53 1021.44 1020.45 1019.58 1018.86 1018.28 1017.84 1017.47 1017.13 1016.76 1016.32 1015.76 1015.08 1014.29 1013.41 1012.50 1011.60 1010.76 1010.01 1009.36 1008.80 1008.32 1007.88 1007.46 1007.03 1006.60 1006.18 1005.79 1005.46
1034.70 1034.04 1033.37 1032.68 1031.98 1031.25 1030.50 1029.70 1028.85 1027.94 1026.95 1025.89 1024.77 1023.63 1022.49 1021.42 1020.45 1019.61 1018.92 1018.39 1017.97 1017.64 1017.33 1016.99 1016.56 1016.02 1015.36 1014.57 1013.70 1012.80 1011.91 1011.07 1010.32 1009.65 1009.07 1008.56 1008.07 1007.60 1007.12 1006.63 1006.15 1005.70 1005.32
1034.74 1034.09 1033.42 1032.72 1032.00 1031.27 1030.51 1029.73 1028.90 1028.01 1027.05 1026.03 1024.95 1023.85 1022.76 1021.73 1020.80 1020.00 1019.34 1018.83 1018.43 1018.11 1017.80 1017.45 1017.02 1016.47 1015.80 1015.02 1014.17 1013.28 1012.40 1011.57 1010.82 1010.15 1009.55 1008.99 1008.45 1007.91 1007.35 1006.78 1006.22 1005.70 1005.26
1034.83 1034.20 1033.52 1032.82 1032.10 1031.37 1030.63 1029.87 1029.08 1028.24 1027.33 1026.37 1025.36 1024.33 1023.30 1022.33 1021.44 1020.67 1020.03 1019.52 1019.12 1018.77 1018.43 1018.05 1017.59 1017.02 1016.34 1015.56 1014.71 1013.85 1013.00 1012.19 1011.45 1010.78 1010.16 1009.57 1008.98 1008.37 1007.73 1007.07 1006.43 1005.82 1005.30
1034.94 1034.32 1033.66 1032.96 1032.25 1031.54 1030.82 1030.10 1029.35 1028.57 1027.74 1026.86 1025.93 1024.98 1024.02 1023.11 1022.26 1021.52 1020.88 1020.36 1019.91 1019.51 1019.12 1018.68 1018.17 1017.57 1016.87 1016.09 1015.26 1014.42 1013.61 1012.84 1012.14 1011.48 1010.86 1010.25 1009.61 1008.94 1008.23 1007.49 1006.75 1006.06 1005.47
1035.05 1034.45 1033.80 1033.12 1032.42 1031.73 1031.04 1030.36 1029.67 1028.96 1028.20 1027.40 1026.55 1025.68 1024.79 1023.94 1023.13 1022.40 1021.76 1021.20 1020.71 1020.25 1019.79 1019.28 1018.72 1018.07 1017.35 1016.58 1015.77 1014.97 1014.21 1013.49 1012.83 1012.20 1011.60 1010.98 1010.32 1009.60 1008.82 1008.01 1007.19 1006.41 1005.74
1035.14 1034.55 1033.91 1033.24 1032.57 1031.90 1031.25 1030.61 1029.97 1029.32 1028.63 1027.90 1027.13 1026.32 1025.50 1024.70 1023.92 1023.21 1022.56 1021.98 1021.44 1020.92 1020.40 1019.83 1019.22 1018.54 1017.81 1017.04 1016.26 1015.50 1014.79 1014.12 1013.51 1012.92 1012.33 1011.72 1011.04 1010.29 1009.46 1008.59 1007.71 1006.86 1006.13
1035.17 1034.60 1033.97 1033.32 1032.67 1032.03 1031.41 1030.81 1030.21 1029.60 1028.97 1028.30 1027.58 1026.83 1026.07 1025.31 1024.57 1023.88 1023.23 1022.63 1022.07 1021.52 1020.95 1020.36 1019.71 1019.02 1018.28 1017.53 1016.78 1016.07 1015.40 1014.78 1014.20 1013.64 1013.08 1012.46 1011.78 1011.00 1010.15 1009.23 1008.29 1007.40 1006.62
1035.15 1034.59 1033.98 1033.35 1032.72 1032.11 1031.52 1030.94 1030.38 1029.80 1029.20 1028.56 1027.88 1027.18 1026.45 1025.73 1025.04 1024.37 1023.75 1023.17 1022.62 1022.07 1021.50 1020.90 1020.26 1019.57 1018.86 1018.13 1017.41 1016.72 1016.08 1015.50 1014.94 1014.41 1013.85 1013.23 1012.54 1011.75 1010.87 1009.92 1008.96 1008.05 1007.25
1035.07 1034.52 1033.94 1033.33 1032.74 1032.15 1031.58 1031.03 1030.47 1029.91 1029.32 1028.69 1028.04 1027.36 1026.67 1025.99 1025.33 1024.72 1024.15 1023.62 1023.11 1022.60 1022.08 1021.52 1020.91 1020.26 1019.58 1018.88 1018.19 1017.53 1016.91 1016.33 1015.78 1015.24 1014.68 1014.05 1013.34 1012.54 1011.65 1010.70 1009.74 1008.83 1008.03
1034.94 1034.42 1033.86 1033.29 1032.73 1032.17 1031.63 1031.08 1030.53 1029.96 1029.36 1028.74 1028.08 1027.41 1026.74 1026.10 1025.50 1024.95 1024.45 1023.99 1023.56 1023.14 1022.69 1022.21 1021.67 1021.08 1020.45 1019.79 1019.13 1018.49 1017.88 1017.29 1016.73 1016.17 1015.59 1014.95 1014.23 1013.43 1012.54 1011.61 1010.66 1009.77 1009.00
1034.78 1034.28 1033.77 1033.25 1032.72 1032.20 1031.67 1031.14 1030.58 1030.00 1029.38 1028.73 1028.06 1027.39 1026.74 1026.13 1025.58 1025.09 1024.68 1024.32 1023.99 1023.67 1023.33 1022.95 1022.50 1022.00 1021.43 1020.83 1020.20 1019.57 1018.96 1018.37 1017.79 1017.21 1016.60 1015.95 1015.23 1014.43 1013.57 1012.67 1011.77 1010.93 1010.20
1034.59 1034.14 1033.67 1033.20 1032.72 1032.24 1031.73 1031.21 1030.64 1030.04 1029.39 1028.71 1028.02 1027.34 1026.69 1026.10 1025.60 1025.18 1024.84 1024.58 1024.36 1024.15 1023.93 1023.65 1023.31 1022.90 1022.42 1021.87 1021.29 1020.70 1020.10 1019.50 1018.92 1018.32 1017.71 1017.05 1016.34 1015.57 1014.75 1013.91 1013.07 1012.30 1011.64
1034.37 1033.97 1033.56 1033.15 1032.72 1032.28 1031.80 1031.29 1030.72 1030.09 1029.41 1028.71 1027.98 1027.28 1026.63 1026.06 1025.58 1025.21 1024.94 1024.76 1024.63 1024.52 1024.40 1024.23 1023.99 1023.67 1023.28 1022.81 1022.29 1021.74 1021.17 1020.60 1020.03 1019.45 1018.85 1018.22 1017.55 1016.83 1016.08 1015.31 1014.55 1013.85 1013.27
1034.14 1033.79 1033.44 1033.08 1032.71 1032.31 1031.87 1031.36 1030.79 1030.15 1029.45 1028.71 1027.96 1027.24 1026.58 1026.00 1025.53 1025.19 1024.96 1024.82 1024.75 1024.71 1024.67 1024.58 1024.43 1024.20 1023.89 1023.51 1023.07 1022.59 1022.09 1021.57 1021.05 1020.52 1019.98 1019.41 1018.80 1018.16 1017.48 1016.80 1016.14 1015.53 1015.02
1033.89 1033.59 1033.29 1032.99 1032.67 1032.32 1031.90 1031.42 1030.85 1030.20 1029.49 1028.73 1027.96 1027.21 1026.53 1025.94 1025.46 1025.12 1024.88 1024.76 1024.71 1024.70 1024.69 1024.66 1024.57 1024.41 1024.18 1023.89 1023.54 1023.15 1022.75 1022.32 1021.89 1021.45 1021.00 1020.52 1020.01 1019.46 1018.89 1018.31 1017.74 1017.22 1016.78
1033.62 1033.36 1033.12 1032.87 1032.59 1032.28 1031.90 1031.43 1030.88 1030.24 1029.52 1028.76 1027.97 1027.21 1026.50 1025.89 1025.39 1025.01 1024.75 1024.59 1024.52 1024.49 1024.47 1024.44 1024.38 1024.27 1024.11 1023.90 1023.65 1023.37 1023.08 1022.78 1022.48 1022.16 1021.83 1021.47 1021.08 1020.65 1020.20 1019.72 1019.25 1018.82 1018.44
1033.34 1033.13 1032.92 1032.71 1032.48 1032.20 1031.85 1031.42 1030.88 1030.26 1029.55 1028.79 1028.01 1027.24 1026.52 1025.87 1025.33 1024.90 1024.57 1024.35 1024.21 1024.11 1024.05 1023.99 1023.91 1023.81 1023.69 1023.55 1023.39 1023.22 1023.06 1022.90 1022.74 1022.58 1022.39 1022.17 1021.92 1021.63 1021.29 1020.93 1020.56 1020.21 1019.90
1033.07 1032.89 1032.72 1032.55 1032.36 1032.11 1031.79 1031.38 1030.88 1030.28 1029.60 1028.86 1028.08 1027.31 1026.58 1025.91 1025.32 1024.82 1024.41 1024.09 1023.85 1023.65 1023.49 1023.35 1023.22 1023.09 1022.98 1022.88 1022.79 1022.73 1022.69 1022.67 1022.66 1022.65 1022.62 1022.56 1022.46 1022.30 1022.10 1021.85 1021.59 1021.32 1021.08
1032.81 1032.67 1032.55 1032.41 1032.25 1032.03 1031.74 1031.36 1030.88 1030.32 1029.67 1028.96 1028.21 1027.45 1026.72 1026.02 1025.38 1024.81 1024.31 1023.87 1023.49 1023.16 1022.87 1022.61 1022.39 1022.20 1022.06 1021.96 1021.92 1021.93 1021.99 1022.09 1022.22 1022.36 1022.49 1022.58 1022.63 1022.62 1022.55 1022.43 1022.28 1022.11 1021.94
1032.59 1032.49 1032.40 1032.30 1032.16 1031.97 1031.71 1031.36 1030.92 1030.38 1029.77 1029.10 1028.39 1027.65 1026.92 1026.21 1025.52 1024.88 1024.28 1023.72 1023.19 1022.71 1022.26 1021.86 1021.51 1021.22 1021.01 1020.88 1020.83 1020.88 1021.01 1021.20 1021.45 1021.72 1021.99 1022.23 1022.43 1022.57 1022.64 1022.66 1022.63 1022.57 1022.51
1032.39 1032.35 1032.30 1032.23 1032.12 1031.95 1031.71 1031.39 1030.97 1030.48 1029.91 1029.28 1028.60 1027.89 1027.17 1026.44 1025.72 1025.01 1024.31 1023.63 1022.96 1022.31 1021.70 1021.14 1020.64 1020.22 1019.90 1019.70 1019.62 1019.66 1019.82 1020.08 1020.41 1020.79 1021.18 1021.56 1021.90 1022.19 1022.41 1022.58 1022.69 1022.76 1022.81
1032.22 1032.23 1032.22 1032.18 1032.10 1031.95 1031.73 1031.43 1031.04 1030.57 1030.04 1029.44 1028.80 1028.12 1027.41 1026.68 1025.93 1025.16 1024.38 1023.58 1022.77 1021.98 1021.20 1020.47 1019.81 1019.25 1018.81 1018.51 1018.36 1018.36 1018.51 1018.79 1019.17 1019.63 1020.12 1020.62 1021.10 1021.53 1021.91 1022.22 1022.48 1022.70 1022.89
Thickness
5244 5233 5223 5215 5206 5196 5184 5172 5160 5146 5132 5121 5113 5108 5108 5111 5118 5127 5137 5147 5158 5167 5175 5185 5197 5210 5224 5241 5260 5280 5301 5317 5336 5354 5368 5392 5417 5442 5464 5482 5501 5519 5538
5239 5228 5218 5209 5199 5188 5176 5162 5147 5131 5115 5102 5094 5091 5092 5097 5104 5115 5127 5139 5149 5159 5169 5178 5190 5203 5217 5233 5251 5271 5292 5312 5328 5343 5357 5379 5406 5431 5453 5471 5489 5505 5523
5235 5223 5213 5203 5193 5181 5169 5154 5137 5118 5102 5092 5087 5087 5091 5096 5103 5114 5125 5135 5145 5154 5163 5172 5182 5194 5208 5224 5242 5262 5283 5306 5325 5339 5352 5370 5396 5420 5442 5461 5475 5489 5510
5231 5219 5208 5199 5188 5176 5162 5146 5128 5110 5096 5088 5087 5091 5096 5103 5113 5122 5129 5135 5142 5150 5157 5165 5174 5186 5199 5216 5235 5252 5274 5296 5319 5336 5350 5365 5387 5410 5432 5451 5463 5479 5499
5228 5216 5205 5194 5183 5171 5158 5142 5123 5105 5092 5087 5088 5094 5101 5110 5120 5127 5129 5132 5136 5143 5150 5158 5167 5180 5193 5209 5227 5244 5264 5284 5304 5323 5341 5358 5377 5398 5420 5437 5452 5468 5487
5225 5213 5202 5191 5180 5168 5155 5139 5122 5105 5093 5087 5088 5093 5100 5109 5121 5125 5125 5126 5130 5135 5142 5151 5162 5173 5186 5200 5218 5235 5254 5272 5288 5301 5317 5336 5357 5377 5398 5419 5439 5455 5474
5223 5212 5201 5190 5178 5167 5154 5139 5123 5106 5094 5088 5087 5091 5097 5107 5118 5121 5122 5121 5124 5129 5135 5144 5155 5168 5182 5193 5209 5226 5242 5259 5274 5284 5296 5312 5333 5356 5379 5403 5423 5440 5461
5223 5212 5201 5190 5179 5168 5156 5141 5125 5109 5097 5089 5087 5089 5094 5102 5112 5116 5116 5117 5119 5123 5129 5138 5150 5163 5180 5191 5203 5219 5233 5246 5261 5273 5284 5296 5314 5337 5359 5379 5401 5421 5442
5225 5214 5203 5192 5182 5171 5159 5145 5130 5116 5103 5093 5089 5088 5091 5097 5107 5111 5110 5111 5114 5118 5125 5134 5147 5159 5175 5188 5199 5214 5228 5239 5252 5264 5274 5284 5298 5319 5341 5362 5385 5409 5435
5226 5215 5204 5194 5183 5173 5161 5149 5135 5122 5110 5099 5093 5090 5091 5095 5103 5108 5107 5106 5109 5114 5121 5130 5143 5156 5170 5183 5194 5208 5222 5231 5243 5255 5264 5273 5285 5301 5323 5343 5365 5392 5423
5226 5216 5207 5197 5186 5176 5164 5153 5141 5129 5118 5106 5098 5094 5093 5095 5099 5104 5106 5104 5104 5110 5118 5126 5139 5152 5164 5178 5190 5202 5215 5224 5234 5245 5255 5265 5277 5292 5311 5331 5351 5374 5402
5227 5218 5210 5200 5190 5180 5169 5160 5150 5140 5128 5117 5107 5101 5097 5096 5098 5102 5104 5105 5105 5107 5114 5123 5135 5148 5159 5172 5184 5197 5208 5218 5228 5238 5248 5258 5270 5285 5302 5322 5343 5366 5389
5230 5221 5213 5205 5196 5186 5176 5167 5159 5151 5140 5129 5118 5110 5104 5101 5099 5100 5102 5104 5106 5106 5111 5122 5131 5143 5154 5165 5178 5190 5200 5211 5221 5231 5241 5251 5263 5278 5296 5316 5337 5358 5380
5233 5225 5218 5210 5202 5192 5183 5175 5168 5160 5151 5140 5129 5121 5113 5108 5105 5103 5102 5103 5105 5107 5109 5117 5126 5136 5148 5159 5171 5182 5192 5203 5213 5222 5233 5246 5259 5274 5290 5306 5325 5346 5366
5237 5229 5221 5215 5206 5197 5189 5181 5175 5167 5161 5153 5143 5135 5126 5120 5116 5113 5109 5108 5108 5110 5111 5115 5123 5131 5142 5153 5164 5174 5184 5195 5205 5216 5227 5239 5253 5267 5281 5295 5310 5328 5345
5241 5233 5226 5219 5211 5203 5194 5187 5180 5175 5169 5163 5156 5149 5141 5134 5129 5123 5117 5112 5111 5112 5111 5112 5118 5125 5134 5144 5154 5165 5176 5186 5196 5207 5218 5229 5242 5256 5270 5283 5296 5310 5325
5244 5237 5231 5223 5216 5209 5203 5194 5187 5182 5177 5171 5165 5159 5154 5147 5140 5134 5128 5120 5115 5113 5110 5111 5114 5119 5127 5136 5146 5156 5167 5177 5187 5197 5208 5219 5231 5244 5257 5270 5281 5294 5307
5248 5241 5235 5227 5219 5213 5207 5200 5194 5188 5183 5179 5174 5168 5164 5159 5152 5145 5138 5130 5121 5117 5113 5113 5114 5118 5124 5131 5140 5150 5160 5170 5179 5189 5199 5209 5220 5232 5243 5255 5267 5277 5289
5252 5245 5239 5232 5225 5219 5213 5207 5201 5195 5190 5186 5182 5178 5174 5169 5163 5156 5149 5140 5133 5127 5122 5120 5119 5121 5124 5129 5136 5145 5154 5163 5172 5181 5190 5199 5210 5221 5231 5241 5252 5263 5273
5255 5250 5245 5237 5229 5224 5218 5212 5207 5202 5198 5195 5191 5188 5185 5180 5173 5167 5161 5154 5147 5141 5135 5131 5128 5127 5127 5130 5135 5141 5150 5159 5167 5175 5183 5191 5201 5210 5220 5230 5240 5249 5258
5258 5251 5247 5239 5233 5228 5223 5217 5211 5207 5203 5201 5197 5195 5195 5188 5182 5177 5172 5167 5161 5155 5150 5145 5140 5136 5134 5134 5136 5141 5147 5154 5162 5169 5177 5185 5193 5202 5210 5220 5229 5238 5247
5261 5253 5248 5242 5237 5233 5229 5221 5216 5211 5207 5205 5203 5200 5199 5195 5191 5187 5183 5179 5174 5169 5164 5159 5155 5150 5146 5143 5142 5144 5147 5152 5159 5165 5172 5179 5186 5194 5202 5210 5218 5227 5235
5263 5256 5250 5245 5240 5236 5230 5225 5221 5215 5211 5209 5207 5204 5201 5198 5196 5194 5191 5189 5186 5182 5178 5173 5169 5165 5161 5157 5153 5151 5151 5154 5158 5163 5168 5174 5180 5187 5194 5201 5208 5216 5224
5265 5258 5252 5246 5242 5237 5233 5228 5224 5220 5216 5212 5210 5206 5203 5201 5199 5197 5196 5195 5194 5192 5189 5186 5182 5178 5175 5171 5167 5163 5161 5159 5160 5162 5165 5169 5174 5180 5186 5192 5199 5206 5212
5268 5260 5253 5247 5242 5237 5233 5229 5226 5222 5218 5215 5211 5208 5205 5204 5203 5201 5201 5200 5199 5199 5198 5196 5193 5191 5188 5184 5180 5176 5172 5168 5165 5163 5163 5165 5168 5172 5177 5183 5189 5195 5201
5269 5262 5255 5248 5242 5237 5233 5229 5226 5222 5219 5216 5212 5209 5207 5206 5205 5204 5204 5203 5203 5203 5203 5203 5202 5201 5199 5196 5192 5188 5183 5179 5174 5170 5165 5162 5162 5164 5167 5172 5177 5183 5189